Location: Malmö
(55.6050°N, 13.0038°E)
Time: 04:37:21
(UTC+02:00)

ISS - Pass Details

Date: 03 August 2017
Orbit: 402 x 407 km, 51.6° (Epoch: 24 May)

Event Time Altitude Azimuth Distance (km) Brightness Sun altitude
Rises 23:16:24 0° 273° (W) 2,324 0.5 -13.0°
Reaches altitude 10° 23:19:05 10° 250° (WSW) 1,459 -0.9 -13.2°
Maximum altitude 23:21:05 15° 212° (SSW) 1,174 -1.8 -13.3°
Enters shadow 23:21:31 15° 202° (SSW) 1,188 -1.8 -13.3°
